Theta_e
331 342 356 355 351 350 349 348 349 348 347 347 345 345 344 345 344 341 339 337 336 335 334 333 332 333 333 333 334 335 334 334 334 335 337 341 345 347 352 354 355 353 355
333 345 355 354 352 350 350 350 349 348 347 346 345 343 341 341 339 338 337 336 335 335 335 335 334 334 335 335 335 334 335 335 336 335 335 336 337 338 349 351 353 353 354
334 346 349 353 352 352 351 350 349 348 347 346 346 343 341 341 338 337 338 337 337 337 336 335 334 334 334 334 334 335 335 336 337 337 337 337 335 335 340 350 352 353 353
337 345 346 353 352 352 351 351 349 348 347 347 345 343 343 342 339 339 338 338 338 337 337 336 335 334 334 334 334 334 335 337 337 339 335 335 333 338 340 339 351 352 351
338 344 344 353 352 352 352 351 350 348 347 346 344 343 342 342 342 341 339 338 338 337 337 338 338 337 337 337 336 336 337 339 339 339 336 334 333 336 342 344 344 353 353
336 342 346 352 351 352 352 351 350 349 347 346 345 344 343 341 343 343 340 339 338 339 339 339 340 340 340 339 340 339 339 341 342 338 337 336 337 338 343 346 346 352 353
334 338 342 352 352 352 353 351 350 349 348 347 347 345 344 344 343 342 340 339 340 340 341 342 342 343 343 342 342 343 341 341 341 337 336 336 335 338 343 349 353 352 354
333 335 338 352 352 351 352 352 351 349 348 347 347 346 345 345 345 342 341 341 341 341 342 343 343 344 345 342 342 342 343 343 340 337 336 334 335 339 343 350 352 351 353
330 331 332 344 348 352 352 351 350 349 348 348 347 346 346 346 346 345 344 342 343 344 344 344 345 346 345 343 342 340 340 342 340 337 336 336 337 339 341 344 349 351 352
326 328 328 336 342 344 346 352 351 350 349 348 348 348 347 347 347 346 345 346 344 344 345 345 346 347 346 345 342 340 339 339 337 336 336 336 340 341 340 343 349 350 351
332 325 325 329 337 340 342 345 351 350 350 349 349 348 345 341 342 342 344 345 344 344 345 347 348 348 347 344 341 340 339 335 335 335 335 338 341 342 341 343 348 349 350
328 331 325 327 333 335 338 338 343 343 342 343 343 342 341 338 339 341 343 345 344 345 347 348 349 348 345 338 336 338 335 333 333 334 335 339 340 341 340 343 348 349 349
328 330 331 328 330 332 334 334 336 341 340 341 339 338 339 338 339 341 338 340 341 345 341 344 346 345 340 335 334 332 331 330 330 332 334 337 339 339 340 343 343 346 346
316 323 331 332 330 330 331 332 333 337 337 337 338 338 338 337 335 336 336 335 336 338 339 340 339 339 337 335 333 331 330 329 329 330 331 336 338 340 340 342 342 346 346
313 316 317 332 333 332 330 331 331 332 336 335 336 337 337 336 333 333 334 333 332 333 336 337 336 336 335 334 333 331 331 330 330 330 331 335 338 340 341 341 343 342 343
313 313 314 328 334 334 331 330 330 331 334 333 334 336 337 335 333 332 331 330 329 331 333 335 334 334 333 332 331 331 331 331 331 332 332 334 337 340 341 342 342 343 342
314 315 314 320 332 333 333 332 330 331 334 333 334 336 336 335 332 331 329 328 329 330 332 332 332 332 330 330 329 331 331 331 330 329 330 332 333 337 342 343 343 343 341
313 313 315 317 329 333 334 334 333 332 334 334 334 336 337 335 333 331 329 329 330 329 330 330 330 329 329 329 328 329 330 329 330 331 332 331 332 333 335 342 343 343 341
313 313 313 314 326 331 333 333 331 332 333 333 333 335 336 335 333 331 330 330 331 330 329 329 328 329 326 326 327 327 327 327 327 328 330 331 330 333 334 336 341 341 341
312 313 313 313 319 329 329 328 330 332 332 333 333 334 335 335 334 332 331 330 330 328 327 327 327 326 326 326 325 326 326 327 327 327 329 330 330 331 334 334 337 339 341
313 312 312 313 320 328 328 327 326 329 331 330 332 335 334 335 334 333 331 330 329 328 328 327 326 325 323 324 323 322 324 325 325 325 327 328 329 330 332 334 334 335 337
311 313 315 314 324 327 329 326 328 326 327 329 332 335 336 335 334 333 332 329 329 327 327 325 326 325 325 326 321 320 314 319 321 325 325 326 328 329 330 329 332 333 336
310 313 318 321 326 329 328 326 324 325 325 325 326 328 332 334 334 333 331 329 327 328 326 326 327 325 321 323 323 318 311 311 314 317 321 324 327 327 329 331 331 333 335
309 319 325 327 329 330 328 326 327 324 323 323 324 327 329 332 332 331 329 328 328 327 326 325 325 324 321 319 321 320 318 317 313 314 319 322 324 325 327 329 331 332 334
314 322 327 329 329 329 328 327 324 322 322 323 324 325 326 328 329 331 330 329 328 326 326 325 324 322 321 319 320 319 318 318 318 316 313 318 321 323 325 327 329 331 332
321 325 328 329 327 328 327 326 325 323 322 322 322 322 323 325 327 329 329 328 327 325 325 324 324 322 321 321 321 320 319 318 317 316 313 314 317 320 325 328 330 330 332
Wind_Speed
6 12 21 19 18 17 18 18 17 16 17 18 18 17 17 16 16 15 13 11 10 9 7 7 6 7 7 6 6 6 5 5 5 6 7 8 8 9 4 6 7 6 11
12 14 21 20 19 19 18 18 17 17 17 17 17 17 17 16 17 17 16 14 12 10 9 7 6 5 5 5 5 4 4 4 6 6 6 8 8 3 6 7 7 6 9
14 15 18 21 20 19 19 17 17 17 17 16 16 17 17 16 16 15 14 15 13 11 9 7 5 4 3 3 3 2 2 3 4 5 7 4 5 5 3 4 8 8 8
15 15 15 22 21 20 19 18 17 17 17 17 17 17 17 17 17 15 14 13 12 12 10 8 6 4 2 1 0 1 2 2 3 5 3 4 5 7 6 4 6 9 10
11 14 15 23 22 22 20 19 18 18 17 17 17 17 16 16 15 15 14 13 11 10 9 7 6 4 3 2 2 2 3 3 4 4 3 3 2 6 8 7 5 9 11
10 13 18 24 23 22 21 20 19 19 18 17 18 17 17 16 15 13 13 12 10 9 8 6 5 5 4 4 4 4 5 5 6 2 3 4 4 6 9 10 8 8 10
10 11 13 21 22 21 21 21 21 20 20 18 18 18 17 16 15 14 12 11 11 10 9 8 6 6 6 5 5 6 6 6 3 3 3 3 4 9 10 12 7 12 10
12 12 12 21 22 21 21 20 21 21 20 20 19 19 18 17 17 15 14 13 12 11 10 8 7 7 5 4 5 6 7 8 5 2 3 3 6 10 10 11 5 10 10
7 7 5 9 15 19 20 21 21 21 21 21 20 19 19 18 17 16 15 14 13 12 11 10 10 7 6 6 5 6 6 8 5 3 4 3 8 10 10 10 5 8 9
3 6 7 7 11 12 13 22 21 20 20 20 20 20 18 18 17 16 15 14 14 14 13 12 11 9 8 7 7 7 7 8 4 4 3 4 9 11 10 9 6 7 8
5 6 8 9 9 10 9 11 18 21 20 20 18 20 16 8 10 13 13 15 14 14 13 12 11 10 9 9 8 8 9 2 4 4 3 7 10 12 12 11 9 8 8
7 9 9 8 11 10 9 9 11 10 10 10 11 10 8 7 7 9 12 17 16 14 13 12 11 11 10 3 3 5 2 3 3 4 4 10 11 12 12 12 10 8 7
11 3 12 13 12 12 11 7 6 6 6 7 9 9 8 6 7 6 4 5 4 11 4 6 6 4 5 4 4 3 4 4 3 4 6 10 10 12 11 10 7 11 9
6 9 9 12 11 12 8 8 8 7 8 6 8 9 8 6 6 5 4 5 4 3 4 4 3 4 5 5 5 5 5 4 3 3 6 11 11 12 12 11 10 7 9
9 14 12 9 13 13 13 8 8 10 9 9 8 9 10 8 8 6 6 5 4 3 3 4 4 4 5 6 5 6 6 6 6 4 4 9 10 12 12 13 12 12 10
10 11 8 11 14 12 13 14 11 9 9 8 8 9 12 8 8 8 6 5 4 4 4 5 5 5 6 5 6 7 8 6 6 5 4 4 11 10 13 14 14 14 12
9 8 11 10 9 13 15 14 9 8 8 8 8 9 11 10 9 9 6 6 6 5 4 4 4 3 3 4 6 5 5 5 5 5 5 5 5 11 11 14 16 14 12
9 10 10 7 11 14 14 10 9 8 8 7 7 8 11 11 11 8 7 7 4 4 4 3 4 3 4 5 5 4 4 4 5 4 5 4 5 3 7 12 16 17 14
10 10 10 6 10 13 9 6 6 6 6 5 6 7 12 12 11 9 7 5 6 5 4 4 3 3 3 3 4 3 4 4 5 4 4 4 4 4 3 6 9 11 12
10 9 10 6 8 7 6 4 4 4 4 6 6 7 10 8 10 9 7 6 6 4 4 3 4 4 3 2 3 4 4 4 3 4 4 3 4 4 3 4 3 5 10
10 10 9 7 7 8 5 4 3 5 5 4 5 7 10 9 10 10 7 6 6 6 7 6 3 4 3 3 2 2 3 3 4 4 4 3 4 5 4 4 4 3 4
10 11 8 6 6 7 5 3 4 4 3 3 4 6 7 9 10 10 9 7 7 5 4 4 4 2 2 4 2 1 1 2 2 4 3 4 5 2 4 4 4 5 5
10 9 8 5 8 8 8 6 4 5 4 3 2 2 5 8 8 7 7 6 6 4 4 4 6 6 4 3 3 2 2 3 0 1 3 4 4 3 3 4 4 5 5
11 5 5 7 8 9 10 8 11 5 5 3 4 3 4 5 5 5 6 6 5 3 4 4 5 5 3 4 2 2 3 2 2 1 1 1 2 4 3 2 3 4 4
5 6 6 7 7 8 8 9 7 6 3 4 3 6 4 3 5 5 5 6 4 3 4 5 5 5 4 3 3 3 1 1 2 1 1 1 1 1 1 2 2 2 4
2 4 5 7 6 7 8 8 10 11 8 6 4 4 3 2 3 4 5 4 4 4 4 4 5 6 5 3 3 3 3 3 3 2 1 1 1 1 0 2 1 2 3
Wind_Direction
218 164 167 168 165 167 167 168 168 161 160 156 152 150 147 146 146 145 143 141 140 138 133 126 114 99 90 80 72 65 46 30 15 15 3 10 27 4 191 173 165 152 160
129 162 168 168 169 173 178 176 170 167 167 160 156 152 150 151 151 152 152 152 151 148 143 134 122 109 99 92 79 64 43 26 9 5 360 10 10 334 314 183 175 172 179
140 159 169 169 176 179 184 179 176 172 169 164 160 155 155 153 153 156 157 156 155 154 150 142 135 122 103 85 72 59 36 14 2 7 2 7 343 340 305 218 182 179 178
148 162 167 174 179 186 185 183 178 178 172 168 165 162 161 160 160 161 162 162 162 161 160 158 157 157 152 144 144 326 331 348 350 352 28 1 339 329 336 338 216 200 187
152 164 171 178 183 186 188 185 183 179 178 173 169 169 166 164 164 167 168 171 170 168 170 172 169 179 193 222 246 254 280 303 319 2 4 338 322 317 325 326 304 198 190
160 173 178 182 186 187 188 186 186 184 180 180 177 175 172 172 172 173 175 176 180 179 184 188 199 209 213 229 258 267 274 283 286 318 320 314 318 304 322 306 257 219 192
169 181 181 182 189 191 191 189 187 187 184 184 182 181 179 177 177 178 181 184 189 193 198 199 207 234 244 246 269 272 262 270 272 256 281 289 301 306 316 318 254 204 185
173 178 183 187 193 191 195 196 193 189 188 186 186 186 183 182 180 182 185 193 197 201 204 213 215 232 252 246 255 283 270 272 279 279 273 291 299 309 319 333 180 173 180
155 164 182 198 202 197 197 199 199 194 192 191 188 188 187 186 184 183 187 194 200 207 209 214 223 226 240 248 247 266 273 272 268 251 265 284 297 304 309 324 242 194 191
166 174 183 194 194 204 204 204 202 199 197 195 194 192 188 188 188 188 188 195 201 208 209 214 223 225 228 233 248 257 265 267 282 270 262 274 289 296 297 302 256 201 198
200 200 191 194 204 203 214 219 204 204 204 201 201 196 190 186 189 193 192 197 205 212 214 214 221 218 219 232 240 251 263 244 261 262 263 271 283 289 289 287 243 198 200
214 209 196 213 211 199 207 200 209 208 206 205 202 195 187 174 179 187 196 201 209 215 220 220 223 219 217 200 240 260 270 251 249 260 263 271 274 277 283 284 222 205 207
226 193 202 205 198 204 209 194 198 200 202 205 195 183 178 171 186 191 188 204 193 220 216 223 222 212 195 195 212 223 251 255 245 250 255 263 265 265 266 273 255 219 205
231 242 225 208 199 207 203 205 200 200 202 202 200 181 176 177 177 178 186 199 197 200 207 202 202 198 206 205 210 225 234 242 241 250 253 261 256 256 250 248 248 217 210
251 249 232 181 200 205 202 204 197 204 201 198 188 188 185 184 178 174 192 193 189 179 207 212 203 198 208 215 214 222 235 238 245 245 260 258 251 246 244 238 232 232 235
230 237 230 206 208 195 202 202 200 204 198 189 189 192 190 182 179 191 193 194 193 200 211 205 202 205 214 210 216 220 234 224 236 244 248 249 255 254 244 241 235 222 226
258 250 214 211 189 198 204 205 207 196 188 190 189 185 182 176 175 187 185 197 212 199 205 209 210 194 200 214 234 231 233 223 225 248 245 244 248 262 258 242 233 218 220
247 252 254 196 194 203 205 198 198 188 179 183 175 173 178 179 178 181 194 198 206 186 199 194 193 198 212 208 218 222 220 232 244 244 254 235 235 234 262 246 229 213 209
257 264 275 206 204 203 197 175 161 152 169 161 154 170 183 188 179 189 195 181 184 200 186 191 199 190 191 227 224 216 231 230 244 243 240 223 226 234 249 279 196 186 204
278 264 253 236 202 159 129 112 113 145 152 152 164 185 185 183 177 173 185 191 172 163 166 181 191 190 187 223 254 262 250 236 214 218 235 235 232 247 234 232 243 211 207
278 276 250 204 173 141 132 140 126 175 156 153 174 181 180 175 170 180 176 186 158 170 194 192 155 190 232 184 219 257 247 230 218 210 213 228 231 239 228 192 218 219 227
264 273 268 216 167 163 148 140 137 138 166 156 166 181 177 172 176 182 180 168 170 159 173 161 171 194 241 180 170 223 226 262 246 220 204 212 232 239 232 216 206 222 218
261 266 264 195 169 158 138 116 90 82 72 97 138 148 186 181 172 169 165 153 151 160 185 195 206 201 218 185 191 163 132 223 295 19 211 211 217 224 229 227 218 216 215
270 242 199 160 152 150 142 135 149 142 152 165 144 142 145 150 152 148 138 136 158 161 182 203 187 192 158 178 149 197 71 122 126 71 36 199 210 231 232 235 239 229 216
263 219 181 151 139 143 132 145 133 109 102 102 106 126 119 131 150 149 145 148 142 173 195 182 172 178 181 156 166 152 141 81 91 121 112 120 87 9 237 216 209 207 194
213 163 144 136 123 134 131 137 131 129 127 119 118 122 121 116 122 131 136 148 162 177 181 183 178 178 178 165 168 155 157 162 184 153 141 128 122 42 345 269 241 211 194